TimePST,TemperatureF,Dew PointF,Humidity,Sea Level PressureIn,VisibilityMPH,Wind Direction,Wind SpeedMPH,Gust SpeedMPH,PrecipitationIn,Events,Conditions,WindDirDegrees,DateUTC
12:08 AM,26.6,24.8,93,29.94,2.0,SSW,9.2,-,0.01,Snow,Light Snow,200,2013-01-29 08:08:00
12:15 AM,26.6,24.8,93,29.94,2.0,SSW,8.1,-,0.01,Snow,Light Snow,200,2013-01-29 08:15:00
12:28 AM,26.6,24.8,93,29.93,1.8,SSW,9.2,-,0.01,Snow,Light Snow,200,2013-01-29 08:28:00
12:39 AM,26.6,24.8,93,29.93,3.0,North,-9999.0,-,0.01,Snow,Light Snow,0,2013-01-29 08:39:00
12:46 AM,26.6,24.8,93,29.93,7.0,North,-9999.0,-,0.01,Snow,Light Snow,0,2013-01-29 08:46:00
12:56 AM,26.1,24.1,92,30.02,3.0,SSW,9.2,-,0.01,Snow,Light Snow,200,2013-01-29 08:56:00
1:05 AM,26.6,24.8,93,29.93,2.5,SSW,9.2,-,0.00,Snow,Light Snow,210,2013-01-29 09:05:00
1:30 AM,26.6,24.8,93,29.93,1.8,SSW,12.7,-,0.01,Snow,Light Snow,210,2013-01-29 09:30:00
1:37 AM,26.6,24.8,93,29.93,1.5,SSW,10.4,-,0.01,Snow,Light Snow,210,2013-01-29 09:37:00
1:51 AM,26.6,24.8,93,29.93,2.0,SSW,11.5,-,0.01,Snow,Light Snow,200,2013-01-29 09:51:00
1:56 AM,27.0,24.1,89,30.01,2.5,SSW,12.7,-,0.01,Snow,Light Snow,200,2013-01-29 09:56:00
2:21 AM,26.6,24.8,93,29.92,3.0,SSW,13.8,-,0.00,Snow,Light Snow,200,2013-01-29 10:21:00
2:32 AM,26.6,24.8,93,29.91,2.5,SSW,16.1,-,0.00,Snow,Light Snow,200,2013-01-29 10:32:00
2:52 AM,26.6,24.8,93,29.91,2.5,SSW,15.0,-,0.01,Snow,Light Snow,200,2013-01-29 10:52:00
2:56 AM,28.0,24.1,85,30.00,3.0,South,15.0,-,0.01,Snow,Light Snow,190,2013-01-29 10:56:00
3:16 AM,28.4,24.8,86,29.92,4.0,SSW,15.0,-,0.00,Snow,Light Snow,200,2013-01-29 11:16:00
3:56 AM,28.0,25.0,88,30.01,5.0,South,12.7,-,0.00,Snow,Light Snow,190,2013-01-29 11:56:00
4:03 AM,28.4,24.8,86,29.91,4.0,SSW,11.5,-,0.00,Snow,Light Snow,200,2013-01-29 12:03:00
4:11 AM,28.4,24.8,86,29.90,4.0,SSW,12.7,-,0.00,Snow,Light Snow,200,2013-01-29 12:11:00
4:56 AM,28.0,24.1,85,30.00,5.0,WSW,13.8,-,0.00,Snow,Light Snow,250,2013-01-29 12:56:00
5:15 AM,28.4,24.8,86,29.91,2.5,West,16.1,-,0.00,Snow,Light Snow,260,2013-01-29 13:15:00
5:34 AM,28.4,24.8,86,29.91,3.0,West,17.3,-,0.00,Snow,Light Snow,260,2013-01-29 13:34:00
5:44 AM,28.4,24.8,86,29.92,2.0,West,16.1,-,0.00,Snow,Light Snow,260,2013-01-29 13:44:00
5:52 AM,28.4,24.8,86,29.93,1.8,West,13.8,-,0.00,Snow,Light Snow,260,2013-01-29 13:52:00
5:56 AM,28.9,25.0,85,30.00,2.0,West,13.8,-,0.00,Snow,Light Snow,260,2013-01-29 13:56:00
6:14 AM,28.4,24.8,86,29.93,2.0,West,15.0,23.0,0.00,Snow,Light Snow,260,2013-01-29 14:14:00
6:43 AM,28.4,24.8,86,29.93,1.5,West,15.0,-,0.00,Snow,Light Snow,260,2013-01-29 14:43:00
7:07 AM,28.4,24.8,86,29.94,2.0,West,15.0,-,0.00,Snow,Light Snow,260,2013-01-29 15:07:00
7:26 AM,30.2,24.8,80,29.95,5.0,West,18.4,-,0.00,Snow,Light Snow,260,2013-01-29 15:26:00
7:56 AM,30.0,26.1,85,30.04,4.0,West,15.0,-,0.00,Snow,Light Snow,260,2013-01-29 15:56:00
8:22 AM,30.2,26.6,86,29.97,1.8,WSW,12.7,-,0.00,Snow,Light Snow,250,2013-01-29 16:22:00
8:32 AM,30.2,26.6,86,29.97,2.0,WSW,10.4,-,0.00,Snow,Light Snow,240,2013-01-29 16:32:00
8:38 AM,30.2,26.6,86,29.97,1.8,WSW,9.2,-,0.00,Snow,Light Snow,250,2013-01-29 16:38:00
8:56 AM,30.0,26.1,85,30.06,1.8,WSW,6.9,-,0.00,Snow,Light Snow,240,2013-01-29 16:56:00
9:08 AM,30.2,26.6,86,30.00,2.0,West,8.1,-,0.00,Snow,Light Snow,260,2013-01-29 17:08:00
9:22 AM,30.2,26.6,86,30.01,1.5,WSW,8.1,-,0.00,Snow,Light Snow,250,2013-01-29 17:22:00
9:43 AM,30.2,28.4,93,30.01,2.0,SSW,6.9,-,0.00,Snow,Light Snow,200,2013-01-29 17:43:00
9:56 AM,30.9,28.0,89,30.09,2.0,SW,9.2,-,0.00,Snow,Light Snow,220,2013-01-29 17:56:00
10:05 AM,30.2,26.6,86,30.02,2.5,SW,10.4,-,0.00,Snow,Light Snow,220,2013-01-29 18:05:00
10:12 AM,30.2,26.6,86,30.03,4.0,SW,11.5,-,0.00,Snow,Light Snow,220,2013-01-29 18:12:00
10:56 AM,32.0,26.1,79,30.14,10.0,Variable,3.5,-,0.01,,Overcast,0,2013-01-29 18:56:00
11:56 AM,33.1,24.1,70,30.14,10.0,WNW,10.4,-,N/A,,Overcast,300,2013-01-29 19:56:00
12:56 PM,33.1,25.0,72,30.15,10.0,SW,4.6,-,N/A,,Overcast,220,2013-01-29 20:56:00
1:56 PM,35.1,24.1,64,30.17,10.0,WNW,4.6,-,N/A,,Overcast,290,2013-01-29 21:56:00
2:56 PM,36.0,24.1,62,30.19,10.0,WNW,12.7,-,N/A,,Overcast,290,2013-01-29 22:56:00
3:56 PM,33.1,21.9,64,30.22,10.0,West,6.9,-,N/A,,Mostly Cloudy,280,2013-01-29 23:56:00
4:56 PM,30.9,23.0,72,30.27,10.0,West,6.9,-,N/A,,Overcast,260,2013-01-30 00:56:00
5:56 PM,30.9,24.1,76,30.30,10.0,West,8.1,-,N/A,,Overcast,270,2013-01-30 01:56:00
6:56 PM,30.9,25.0,79,30.32,10.0,West,11.5,-,N/A,,Overcast,260,2013-01-30 02:56:00
7:56 PM,28.9,23.0,78,30.33,10.0,SW,4.6,-,N/A,,Scattered Clouds,220,2013-01-30 03:56:00
8:56 PM,30.0,24.1,79,30.34,10.0,SSW,10.4,-,N/A,,Clear,210,2013-01-30 04:56:00
9:56 PM,33.1,26.1,75,30.33,10.0,SW,11.5,-,N/A,,Overcast,230,2013-01-30 05:56:00
10:56 PM,33.1,27.0,78,30.33,10.0,WSW,11.5,-,N/A,,Overcast,250,2013-01-30 06:56:00
11:56 PM,32.0,27.0,82,30.34,10.0,West,15.0,-,N/A,,Overcast,260,2013-01-30 07:56:00